Location: Caserta
(41.0670°N, 14.3330°E)
Time: 13:12:02
(UTC+02:00)

STARLINK-1329 - Pass Details

Date: 02 October 2020
Orbit: 549 x 550 km, 53.0° (Epoch: 21 October)

Event Time Altitude Azimuth Distance (km) Brightness Sun altitude
Exits shadow 05:26:37 25° 316° (NW) 1,125 4.9 -18.5°
Maximum altitude 05:27:26 27° 337° (NNW) 1,074 5.0 -18.3°
Drops below altitude 10° 05:31:00 10° 36° (NE) 1,825 6.9 -17.6°
Sets 05:33:30 0° 49° (NE) 2,721 8.2 -17.2°
